CSN8032 MMTJ-ZGSZ

Flight info

Callsign CSN8032
Flight time N/A
Altitude 34000
Route TOPOS5A TIJ DCT LAX J1 OAK DCT AMAKR DCT VESPA DCT EDWIL/N0488F360 DCT 48N140W 51N150W 53N160W DCT RADIC/N0496F380 DCT EXAMY DCT NIKLL/N0490F390 R220 NRKEY/N0493F400 R220 NODAN/N0486F410 R220 NANAC/N0484F400 R220 IXE Y88 KCC Y28 ISAKY Y592 ONIKU A593 LAMEN/K0902F400 A593 AKARA/K0902S1220 A593 PUD A599 NXD W131 AKDIM A470 DUBGO W134 ELNEX/K0898S1310 A599 PLT W19 ATKAV W20 SALIV R473 NOLON W90 POU W7 SAREX SAREX3
Aircraft A359/H-SDE2E3GHIJ3J4J5LM1ORWXY/LB1D1

Departure

Time 2026-04-28 11:47
Airport General Abelardo L. Rodriguez International Airport (MMTJ)

Arrival

Time N/A
Airport Shenzhen Bao'an International Airport (ZGSZ)
Time Latitude Longitude Altitude Speed Heading
2026-04-28 11:17 32.54480 -116.97399 481 ft 0 kts 277°
2026-04-28 11:39 32.54480 -116.97396 481 ft 2 kts 277°
2026-04-28 11:40 32.54476 -116.97365 481 ft 4 kts 277°
2026-04-28 11:40 32.54473 -116.97334 474 ft 3 kts 277°
2026-04-28 11:40 32.54470 -116.97315 481 ft 4 kts 330°
2026-04-28 11:40 32.54454 -116.97301 481 ft 3 kts 308°
2026-04-28 11:41 32.54442 -116.97275 474 ft 4 kts 280°
2026-04-28 11:41 32.54438 -116.97247 480 ft 1 kts 281°
2026-04-28 11:41 32.54438 -116.97246 480 ft 0 kts 281°
2026-04-28 11:43 32.54438 -116.97247 480 ft 0 kts 281°
2026-04-28 11:44 32.54438 -116.97248 479 ft 1 kts 281°
2026-04-28 11:44 32.54444 -116.97293 477 ft 8 kts 272°
2026-04-28 11:44 32.54414 -116.97329 481 ft 9 kts 223°
2026-04-28 11:44 32.54359 -116.97406 479 ft 15 kts 212°
2026-04-28 11:45 32.54342 -116.97531 474 ft 20 kts 277°
2026-04-28 11:45 32.54366 -116.97725 480 ft 27 kts 278°
2026-04-28 11:45 32.54396 -116.97955 483 ft 28 kts 278°
2026-04-28 11:45 32.54426 -116.98184 477 ft 27 kts 279°
2026-04-28 11:46 32.54458 -116.98398 486 ft 25 kts 279°
2026-04-28 11:46 32.54411 -116.98515 489 ft 15 kts 204°
2026-04-28 11:46 32.54320 -116.98518 488 ft 10 kts 139°
2026-04-28 11:46 32.54301 -116.98468 488 ft 0 kts 100°
2026-04-28 11:47 32.54281 -116.98316 479 ft 51 kts 98°
2026-04-28 11:47 32.54189 -116.97619 483 ft 117 kts 98°
2026-04-28 11:47 32.54034 -116.96422 477 ft 173 kts 98°
2026-04-28 11:47 32.53858 -116.95007 1131 ft 171 kts 97°
2026-04-28 11:48 32.53560 -116.93647 1795 ft 177 kts 113°
2026-04-28 11:48 32.52983 -116.92225 2124 ft 205 kts 116°
2026-04-28 11:48 32.52302 -116.90604 2377 ft 231 kts 115°
2026-04-28 11:48 32.51575 -116.88822 2625 ft 248 kts 114°
2026-04-28 11:49 32.50818 -116.86930 3018 ft 259 kts 114°
2026-04-28 11:49 32.50042 -116.84975 3531 ft 264 kts 114°
2026-04-28 11:49 32.49259 -116.82987 4086 ft 267 kts 114°
2026-04-28 11:49 32.48469 -116.80985 4637 ft 270 kts 114°
2026-04-28 11:50 32.47672 -116.78960 5194 ft 272 kts 114°
2026-04-28 11:50 32.46878 -116.76945 5700 ft 275 kts 114°
2026-04-28 11:50 32.45866 -116.75018 5947 ft 277 kts 133°
2026-04-28 11:50 32.44278 -116.73782 5994 ft 276 kts 163°
2026-04-28 11:51 32.42386 -116.73599 5994 ft 275 kts 191°
2026-04-28 11:51 32.40646 -116.74466 5991 ft 273 kts 218°
2026-04-28 11:51 32.39368 -116.76114 5992 ft 272 kts 234°
2026-04-28 11:51 32.37952 -116.77600 5989 ft 275 kts 206°
2026-04-28 11:52 32.36112 -116.77999 5993 ft 275 kts 173°
2026-04-28 11:52 32.34361 -116.77144 5996 ft 275 kts 140°
2026-04-28 11:52 32.32962 -116.75586 6143 ft 279 kts 135°
2026-04-28 11:52 32.31549 -116.73980 6642 ft 282 kts 137°
2026-04-28 11:53 32.30088 -116.72423 7301 ft 284 kts 139°
2026-04-28 11:53 32.28588 -116.70899 7945 ft 285 kts 140°
2026-04-28 11:53 32.27056 -116.69399 8538 ft 288 kts 141°
2026-04-28 11:53 32.25492 -116.67888 9102 ft 292 kts 141°
2026-04-28 11:54 32.23905 -116.66359 9679 ft 295 kts 141°
2026-04-28 11:54 32.22302 -116.64823 10196 ft 301 kts 142°
2026-04-28 11:54 32.20639 -116.63236 10453 ft 316 kts 143°
2026-04-28 11:54 32.18717 -116.61888 10622 ft 327 kts 164°
2026-04-28 11:55 32.16448 -116.61621 10830 ft 334 kts 191°
2026-04-28 11:55 32.14269 -116.62583 11027 ft 341 kts 216°
2026-04-28 11:55 32.12608 -116.64596 11230 ft 349 kts 240°
2026-04-28 11:55 32.11775 -116.67302 11439 ft 358 kts 262°
2026-04-28 11:56 32.11922 -116.70266 11680 ft 369 kts 284°
2026-04-28 11:56 32.13033 -116.72973 12062 ft 377 kts 304°
2026-04-28 11:56 32.14978 -116.75090 12489 ft 387 kts 325°
2026-04-28 11:56 32.17505 -116.76286 12922 ft 399 kts 345°
2026-04-28 11:57 32.20308 -116.76395 13325 ft 412 kts
2026-04-28 11:57 32.23142 -116.75746 13712 ft 416 kts
2026-04-28 11:57 32.26016 -116.75363 14135 ft 415 kts 359°
2026-04-28 11:57 32.28913 -116.75361 14553 ft 415 kts 353°
2026-04-28 11:58 32.31801 -116.75591 14919 ft 416 kts 350°
2026-04-28 11:58 32.34553 -116.76397 15303 ft 408 kts 331°
2026-04-28 11:58 32.36989 -116.78064 15733 ft 402 kts 319°
2026-04-28 11:58 32.39169 -116.80128 16132 ft 401 kts 314°
2026-04-28 11:59 32.41246 -116.82344 16581 ft 402 kts 312°
2026-04-28 11:59 32.43318 -116.84587 17012 ft 405 kts 313°
2026-04-28 11:59 32.45432 -116.86816 17452 ft 407 kts 313°
2026-04-28 11:59 32.47592 -116.89012 17874 ft 411 kts 314°
2026-04-28 12:00 32.49795 -116.91190 18314 ft 413 kts 315°
2026-04-28 12:00 32.52029 -116.93358 18761 ft 416 kts 315°
2026-04-28 12:00 32.54255 -116.95500 19177 ft 418 kts 315°
2026-04-28 12:00 32.56491 -116.97703 19563 ft 419 kts 313°
2026-04-28 12:01 32.58707 -116.99986 19975 ft 421 kts 313°
2026-04-28 12:01 32.60896 -117.02292 20375 ft 423 kts 312°
2026-04-28 12:01 32.63100 -117.04628 20773 ft 425 kts 312°
2026-04-28 12:01 32.65313 -117.06966 21146 ft 428 kts 312°
2026-04-28 12:02 32.67549 -117.09322 21501 ft 431 kts 312°
2026-04-28 12:02 32.69801 -117.11683 21888 ft 433 kts 312°
2026-04-28 12:02 32.71301 -117.13252 22147 ft 434 kts 312°
2026-04-28 12:02 32.73579 -117.15631 22519 ft 437 kts 312°
2026-04-28 12:03 32.75874 -117.18026 22899 ft 439 kts 312°
2026-04-28 12:03 32.78171 -117.20427 23279 ft 442 kts 312°
2026-04-28 12:03 32.81236 -117.23634 23773 ft 445 kts 312°
2026-04-28 12:03 32.83563 -117.26073 24133 ft 447 kts 312°
2026-04-28 12:04 32.85141 -117.27728 24389 ft 448 kts 312°
2026-04-28 12:04 32.87489 -117.30190 24779 ft 450 kts 312°
2026-04-28 12:04 32.89839 -117.32657 25171 ft 451 kts 312°
2026-04-28 12:04 32.92168 -117.35105 25518 ft 453 kts 311°
2026-04-28 12:05 32.94535 -117.37594 25894 ft 455 kts 311°
2026-04-28 12:05 32.96911 -117.40095 26267 ft 456 kts 311°
2026-04-28 12:05 32.99293 -117.42606 26617 ft 458 kts 311°
2026-04-28 12:05 33.01680 -117.45123 26971 ft 459 kts 311°
2026-04-28 12:06 33.04072 -117.47647 27339 ft 460 kts 311°
2026-04-28 12:06 33.06469 -117.50179 27680 ft 461 kts 311°
2026-04-28 12:06 33.08874 -117.52723 27986 ft 462 kts 311°
2026-04-28 12:06 33.11287 -117.55272 28302 ft 463 kts 311°
2026-04-28 12:07 33.13705 -117.57826 28606 ft 464 kts 311°
2026-04-28 12:07 33.16129 -117.60390 28896 ft 466 kts 311°
2026-04-28 12:07 33.18554 -117.62955 29115 ft 467 kts 310°
2026-04-28 12:07 33.20985 -117.65528 29463 ft 466 kts 310°
2026-04-28 12:08 33.23371 -117.68054 29973 ft 461 kts 310°
2026-04-28 12:08 33.25765 -117.70595 30355 ft 459 kts 310°
2026-04-28 12:08 33.28141 -117.73125 30659 ft 458 kts 309°
2026-04-28 12:08 33.30527 -117.75667 30926 ft 459 kts 309°
2026-04-28 12:09 33.32914 -117.78209 31300 ft 457 kts 309°
2026-04-28 12:09 33.35284 -117.80733 31630 ft 455 kts 309°
2026-04-28 12:09 33.37644 -117.83252 31897 ft 455 kts 309°
2026-04-28 12:09 33.40001 -117.85767 32172 ft 454 kts 309°
2026-04-28 12:10 33.42335 -117.88258 32405 ft 454 kts 308°
2026-04-28 12:10 33.44688 -117.90772 32708 ft 452 kts 308°
2026-04-28 12:10 33.47028 -117.93273 33000 ft 450 kts 308°
2026-04-28 12:10 33.49365 -117.95776 33217 ft 450 kts 308°
2026-04-28 12:11 33.51702 -117.98286 33383 ft 450 kts 308°
2026-04-28 12:11 33.54033 -118.00791 33630 ft 449 kts 308°
2026-04-28 12:11 33.56356 -118.03287 33807 ft 449 kts 307°
2026-04-28 12:11 33.58683 -118.05786 34001 ft 449 kts 307°
2026-04-28 12:12 33.63339 -118.10795 34073 ft 455 kts 307°
2026-04-28 12:12 33.68051 -118.15866 34073 ft 454 kts 308°
2026-04-28 12:13 33.72737 -118.20908 34094 ft 454 kts 307°
2026-04-28 12:13 33.77435 -118.25981 34094 ft 454 kts 307°
2026-04-28 12:14 33.82128 -118.31058 34091 ft 453 kts 307°
2026-04-28 12:14 33.86821 -118.36140 34101 ft 454 kts 307°
2026-04-28 12:15 33.91512 -118.41224 34101 ft 453 kts 307°
2026-04-28 12:15 33.96185 -118.46277 34100 ft 454 kts 308°
2026-04-28 12:16 34.00951 -118.51291 34101 ft 455 kts 308°
2026-04-28 12:16 34.05732 -118.56310 34098 ft 455 kts 308°
2026-04-28 12:17 34.10509 -118.61355 34096 ft 459 kts 308°
2026-04-28 12:17 34.15317 -118.66460 34086 ft 461 kts 308°
2026-04-28 12:18 34.20136 -118.71573 34088 ft 460 kts 308°
2026-04-28 12:18 34.24938 -118.76671 34094 ft 458 kts 308°
2026-04-28 12:19 34.29694 -118.81743 34088 ft 459 kts 308°
2026-04-28 12:19 34.34495 -118.86853 34092 ft 461 kts 309°
2026-04-28 12:20 34.39727 -118.91522 34094 ft 469 kts 314°
2026-04-28 12:20 34.45102 -118.96036 34087 ft 470 kts 315°
2026-04-28 12:21 34.50467 -119.00506 34105 ft 471 kts 315°
2026-04-28 12:21 34.55860 -119.05009 34106 ft 470 kts 315°
2026-04-28 12:22 34.61253 -119.09524 34091 ft 470 kts 314°
2026-04-28 12:22 34.66630 -119.14050 34101 ft 470 kts 314°
2026-04-28 12:23 34.71997 -119.18583 34101 ft 470 kts 314°
2026-04-28 12:23 34.77373 -119.23120 34109 ft 471 kts 314°
2026-04-28 12:24 34.82758 -119.27669 34117 ft 471 kts 314°
2026-04-28 12:24 34.88135 -119.32216 34120 ft 470 kts 314°
2026-04-28 12:25 34.93500 -119.36765 34119 ft 470 kts 314°
2026-04-28 12:25 34.98836 -119.41297 34117 ft 471 kts 315°
2026-04-28 12:26 35.04204 -119.45863 34119 ft 470 kts 315°
2026-04-28 12:26 35.09555 -119.50423 34119 ft 469 kts 315°
2026-04-28 12:27 35.14910 -119.54995 34128 ft 470 kts 315°
2026-04-28 12:27 35.20272 -119.59578 34127 ft 470 kts 315°
2026-04-28 12:28 35.25639 -119.64172 34127 ft 471 kts 315°
2026-04-28 12:28 35.30964 -119.68748 34136 ft 470 kts 315°
2026-04-28 12:29 35.39009 -119.75656 34143 ft 471 kts 315°
2026-04-28 12:30 35.44376 -119.80277 34150 ft 471 kts 315°
2026-04-28 12:30 35.49733 -119.84895 34141 ft 470 kts 315°
2026-04-28 12:31 35.55085 -119.89521 34148 ft 470 kts 315°
2026-04-28 12:31 35.60439 -119.94154 34145 ft 471 kts 315°
2026-04-28 12:32 35.65679 -119.98932 34146 ft 465 kts 311°
2026-04-28 12:32 35.70616 -120.03985 34156 ft 464 kts 311°
2026-04-28 12:33 35.75540 -120.09133 34153 ft 464 kts 310°
2026-04-28 12:33 35.80465 -120.14280 34155 ft 464 kts 310°
2026-04-28 12:34 35.85382 -120.19443 34160 ft 465 kts 310°
2026-04-28 12:34 35.90310 -120.24617 34153 ft 465 kts 310°
2026-04-28 12:35 35.95241 -120.29796 34154 ft 464 kts 310°
2026-04-28 12:35 36.00123 -120.34930 34146 ft 464 kts 310°
2026-04-28 12:36 36.05046 -120.40107 34157 ft 465 kts 311°
2026-04-28 12:36 36.09996 -120.45357 34146 ft 466 kts 311°
2026-04-28 12:37 36.14911 -120.50536 34168 ft 467 kts 311°
2026-04-28 12:37 36.19852 -120.55774 34157 ft 466 kts 311°
2026-04-28 12:38 36.24777 -120.61019 34168 ft 467 kts 311°
2026-04-28 12:38 36.29718 -120.66276 34167 ft 468 kts 311°
2026-04-28 12:39 36.34651 -120.71541 34169 ft 468 kts 311°
2026-04-28 12:39 36.39561 -120.76788 34165 ft 468 kts 312°
2026-04-28 12:40 36.44508 -120.82075 34166 ft 470 kts 312°
2026-04-28 12:40 36.49457 -120.87372 34165 ft 469 kts 312°
2026-04-28 12:41 36.54398 -120.92679 34167 ft 470 kts 312°
2026-04-28 12:41 36.59362 -120.98017 34165 ft 471 kts 313°
2026-04-28 12:42 36.64317 -121.03345 34165 ft 471 kts 313°
2026-04-28 12:42 36.69242 -121.08654 34169 ft 471 kts 313°
2026-04-28 12:43 36.74201 -121.14004 34166 ft 472 kts 313°
2026-04-28 12:43 36.79156 -121.19369 34165 ft 472 kts 313°
2026-04-28 12:44 36.84114 -121.24748 34168 ft 472 kts 313°
2026-04-28 12:44 36.89048 -121.30109 34173 ft 472 kts 313°
2026-04-28 12:45 36.94000 -121.35499 34174 ft 472 kts 313°
2026-04-28 12:45 36.98957 -121.40903 34173 ft 473 kts 314°
2026-04-28 12:46 37.03920 -121.46317 34181 ft 473 kts 314°
2026-04-28 12:46 37.08870 -121.51743 34186 ft 473 kts 314°
2026-04-28 12:47 37.13822 -121.57172 34188 ft 473 kts 314°
2026-04-28 12:47 37.18777 -121.62609 34184 ft 473 kts 314°
2026-04-28 12:48 37.23727 -121.68056 34174 ft 473 kts 315°
2026-04-28 12:48 37.28681 -121.73519 34173 ft 473 kts 315°
2026-04-28 12:49 37.33630 -121.78979 34166 ft 473 kts 315°
2026-04-28 12:49 37.37741 -121.83522 34164 ft 474 kts 315°
2026-04-28 12:50 37.43503 -121.89903 34164 ft 474 kts 315°
2026-04-28 12:50 37.47645 -121.94502 34165 ft 474 kts 316°
2026-04-28 12:51 37.52588 -122.00000 34165 ft 474 kts 316°
2026-04-28 12:51 37.57503 -122.05474 34165 ft 474 kts 316°
2026-04-28 12:52 37.62447 -122.10996 34165 ft 474 kts 316°
2026-04-28 12:52 37.67388 -122.16518 34165 ft 474 kts 316°
2026-04-28 12:53 37.72316 -122.22036 34164 ft 474 kts 316°
2026-04-28 12:53 37.77197 -122.27640 34165 ft 473 kts 315°
2026-04-28 12:54 37.81982 -122.33290 34165 ft 474 kts 315°
2026-04-28 12:54 37.86804 -122.38984 34165 ft 473 kts 315°
2026-04-28 12:55 37.91628 -122.44667 34165 ft 473 kts 315°
2026-04-28 12:55 37.96442 -122.50333 34153 ft 473 kts 315°
2026-04-28 12:56 38.01264 -122.56026 34154 ft 473 kts 315°
2026-04-28 12:56 38.06078 -122.61722 34157 ft 473 kts 316°
2026-04-28 12:57 38.10886 -122.67414 34156 ft 472 kts 317°
2026-04-28 12:57 38.15685 -122.73107 34162 ft 472 kts 317°
2026-04-28 12:58 38.20483 -122.78815 34164 ft 472 kts 317°
2026-04-28 12:58 38.25243 -122.84485 34165 ft 472 kts 317°
2026-04-28 12:59 38.30032 -122.90202 34165 ft 471 kts 317°
2026-04-28 12:59 38.34811 -122.95914 34157 ft 471 kts 317°
2026-04-28 13:00 38.39581 -123.01632 34155 ft 470 kts 318°
2026-04-28 13:00 38.44345 -123.07353 34158 ft 470 kts 318°
2026-04-28 13:01 38.49075 -123.13039 34155 ft 469 kts 318°
2026-04-28 13:01 38.53825 -123.18766 34154 ft 469 kts 318°
2026-04-28 13:02 38.58575 -123.24503 34157 ft 469 kts 318°
2026-04-28 13:02 38.63315 -123.30235 34156 ft 468 kts 319°
2026-04-28 13:03 38.68020 -123.35935 34164 ft 468 kts 319°
2026-04-28 13:03 38.72744 -123.41671 34166 ft 468 kts 319°
2026-04-28 13:04 38.77466 -123.47417 34163 ft 468 kts 319°
2026-04-28 13:04 38.82187 -123.53170 34165 ft 467 kts 319°
2026-04-28 13:05 38.86862 -123.58879 34166 ft 467 kts 319°
2026-04-28 13:05 38.91560 -123.64632 34164 ft 466 kts 320°
2026-04-28 13:06 38.96258 -123.70392 34165 ft 466 kts 320°
2026-04-28 13:06 39.00669 -123.76463 34166 ft 471 kts 310°
2026-04-28 13:07 39.04457 -123.83366 34165 ft 472 kts 309°
2026-04-28 13:07 39.08132 -123.90394 34165 ft 473 kts 308°
2026-04-28 13:08 39.11785 -123.97435 34165 ft 473 kts 309°
2026-04-28 13:08 39.15447 -124.04476 34165 ft 472 kts 310°
2026-04-28 13:09 39.19103 -124.11504 34165 ft 472 kts 310°
2026-04-28 13:09 39.22735 -124.18491 34165 ft 471 kts 310°
2026-04-28 13:10 39.26385 -124.25526 34165 ft 471 kts 311°
2026-04-28 13:10 39.30031 -124.32572 34174 ft 472 kts 311°
2026-04-28 13:11 39.33667 -124.39624 34174 ft 471 kts 311°
2026-04-28 13:11 39.37306 -124.46683 34174 ft 472 kts 311°
2026-04-28 13:12 39.40924 -124.53712 34174 ft 472 kts 311°
2026-04-28 13:12 39.44557 -124.60795 34174 ft 472 kts 311°
2026-04-28 13:13 39.48183 -124.67888 34174 ft 472 kts 311°
2026-04-28 13:13 39.51804 -124.74986 34183 ft 472 kts 311°
2026-04-28 13:14 39.55423 -124.82089 34183 ft 472 kts 311°
2026-04-28 13:14 39.59031 -124.89188 34183 ft 472 kts 311°
2026-04-28 13:15 39.62638 -124.96302 34183 ft 472 kts 311°
2026-04-28 13:15 39.66224 -125.03390 34183 ft 473 kts 311°
2026-04-28 13:16 39.69827 -125.10526 34183 ft 473 kts 311°
2026-04-28 13:16 39.73429 -125.17685 34192 ft 473 kts 311°
2026-04-28 13:17 39.77024 -125.24840 34192 ft 473 kts 311°
2026-04-28 13:17 39.80614 -125.31997 34192 ft 472 kts 311°
2026-04-28 13:18 39.84204 -125.39172 34193 ft 472 kts 311°
2026-04-28 13:18 39.87761 -125.46299 34193 ft 472 kts 311°
2026-04-28 13:19 39.91337 -125.53473 34193 ft 473 kts 311°
2026-04-28 13:19 39.94914 -125.60671 34192 ft 473 kts 311°
2026-04-28 13:20 39.98489 -125.67883 34192 ft 473 kts 311°
2026-04-28 13:20 40.02054 -125.75096 34192 ft 473 kts 311°
2026-04-28 13:21 40.05617 -125.82320 34194 ft 473 kts 311°
2026-04-28 13:21 40.09149 -125.89492 34193 ft 473 kts 311°
2026-04-28 13:22 40.12706 -125.96735 34192 ft 473 kts 311°
2026-04-28 13:22 40.16257 -126.03974 34192 ft 473 kts 311°
2026-04-28 13:23 40.19810 -126.11243 34193 ft 473 kts 311°
2026-04-28 13:23 40.23327 -126.18453 34192 ft 473 kts 311°
2026-04-28 13:24 40.26871 -126.25728 34193 ft 473 kts 311°
2026-04-28 13:24 40.30397 -126.32999 34192 ft 473 kts 310°
2026-04-28 13:25 40.37176 -126.47014 34192 ft 473 kts 310°
2026-04-28 13:25 40.44192 -126.61583 34194 ft 472 kts 310°
2026-04-28 13:26 40.51197 -126.76192 34192 ft 472 kts 310°
2026-04-28 13:26 40.58132 -126.90723 34192 ft 472 kts 310°
2026-04-28 13:27 40.65808 -127.04465 34207 ft 459 kts 320°
2026-04-28 13:27 40.74610 -127.16554 34204 ft 459 kts 321°
2026-04-28 13:28 40.83453 -127.28675 34214 ft 458 kts 321°
2026-04-28 13:28 40.92229 -127.40794 34206 ft 459 kts 320°
2026-04-28 13:29 41.01053 -127.53032 34230 ft 459 kts 320°
2026-04-28 13:29 41.09844 -127.65270 34229 ft 459 kts 320°
2026-04-28 13:30 41.16830 -127.75035 34214 ft 459 kts 320°
2026-04-28 13:31 41.21787 -127.81985 34226 ft 459 kts 320°
2026-04-28 13:31 41.31733 -127.95974 34228 ft 458 kts 319°
2026-04-28 13:32 41.49128 -128.20597 34211 ft 460 kts 319°
2026-04-28 13:32 41.66588 -128.45522 34227 ft 459 kts 319°
2026-04-28 13:33 41.83997 -128.70592 34235 ft 460 kts 319°
2026-04-28 13:33 42.01388 -128.95852 34232 ft 460 kts 318°
2026-04-28 13:34 42.18654 -129.21149 34245 ft 456 kts 317°
2026-04-28 13:34 42.35790 -129.46470 34241 ft 457 kts 317°
2026-04-28 13:35 42.52816 -129.71850 34239 ft 457 kts 317°
2026-04-28 13:35 42.69860 -129.97479 34228 ft 457 kts 316°
2026-04-28 13:36 42.86831 -130.23229 34222 ft 456 kts 316°
2026-04-28 13:36 43.00868 -130.44699 34224 ft 455 kts 315°
2026-04-28 13:37 43.17651 -130.70582 34209 ft 454 kts 315°
2026-04-28 13:37 43.34326 -130.96538 34771 ft 447 kts 314°
2026-04-28 13:38 43.42221 -131.09728 35667 ft 443 kts 312°
2026-04-28 13:38 43.50022 -131.22853 36218 ft 444 kts 313°
2026-04-28 13:38 43.65674 -131.49224 36220 ft 447 kts 312°
2026-04-28 13:39 43.81340 -131.75868 36250 ft 445 kts 311°
2026-04-28 13:39 43.96920 -132.02613 36245 ft 444 kts 311°
2026-04-28 13:40 44.12405 -132.29444 36247 ft 444 kts 310°
2026-04-28 13:40 44.27727 -132.56236 36238 ft 444 kts 310°
2026-04-28 13:41 44.43064 -132.83308 36220 ft 444 kts 309°
2026-04-28 13:41 44.58369 -133.10578 36220 ft 445 kts 309°
2026-04-28 13:42 44.73599 -133.37974 36220 ft 445 kts 308°
2026-04-28 13:42 44.88803 -133.65589 36230 ft 446 kts 308°
2026-04-28 13:43 45.03911 -133.93300 36230 ft 444 kts 308°
2026-04-28 13:43 45.18928 -134.21106 36230 ft 444 kts 306°
2026-04-28 13:44 45.33875 -134.49057 36229 ft 444 kts 306°
2026-04-28 13:44 45.48650 -134.76964 36230 ft 444 kts 306°
2026-04-28 13:45 45.63452 -135.05197 36230 ft 444 kts 305°
2026-04-28 13:45 45.78193 -135.33599 36230 ft 444 kts 304°
2026-04-28 13:46 45.92833 -135.62086 36230 ft 443 kts 304°
2026-04-28 13:46 46.07371 -135.90664 36220 ft 442 kts 303°
2026-04-28 13:47 46.21831 -136.19384 36241 ft 442 kts 303°
2026-04-28 13:47 46.36084 -136.47984 36250 ft 440 kts 302°
2026-04-28 13:48 46.50345 -136.76887 36248 ft 440 kts 302°
2026-04-28 13:48 46.64494 -137.05869 36250 ft 439 kts 301°
2026-04-28 13:49 46.78554 -137.34969 36247 ft 438 kts 300°
2026-04-28 13:49 46.92524 -137.64189 36249 ft 439 kts 300°
2026-04-28 13:50 47.06422 -137.93566 36249 ft 438 kts 299°
2026-04-28 13:50 47.20207 -138.23012 36230 ft 438 kts 298°
2026-04-28 13:51 47.33817 -138.52403 36230 ft 436 kts 298°
2026-04-28 13:51 47.47392 -138.82029 36229 ft 435 kts 297°
2026-04-28 13:52 47.60900 -139.11831 36230 ft 435 kts 297°
2026-04-28 13:52 47.74276 -139.41666 36230 ft 433 kts 296°
2026-04-28 13:53 47.87475 -139.71417 36229 ft 431 kts 295°
2026-04-28 13:53 48.00600 -140.01357 36175 ft 429 kts 295°
2026-04-28 13:54 48.11754 -140.32480 36174 ft 424 kts 291°
2026-04-28 13:54 48.22935 -140.63757 36165 ft 425 kts 290°
2026-04-28 13:55 48.33948 -140.94940 36166 ft 425 kts 289°
2026-04-28 13:55 48.44931 -141.26427 36148 ft 425 kts 289°
2026-04-28 13:56 48.55834 -141.58055 36147 ft 425 kts 288°
2026-04-28 13:56 48.66662 -141.89866 36144 ft 425 kts 288°
2026-04-28 13:57 48.77400 -142.21802 36136 ft 427 kts 288°
2026-04-28 13:57 48.88087 -142.53992 36146 ft 429 kts 288°
2026-04-28 13:58 48.98746 -142.86511 36140 ft 430 kts 287°
2026-04-28 13:58 49.09289 -143.19086 36083 ft 432 kts 287°
2026-04-28 13:59 49.19850 -143.52147 36082 ft 434 kts 287°
2026-04-28 13:59 49.30350 -143.85460 36082 ft 435 kts 287°
2026-04-28 14:00 49.40787 -144.19019 36073 ft 436 kts 286°
2026-04-28 14:00 49.51160 -144.52833 36074 ft 437 kts 286°
2026-04-28 14:01 49.61433 -144.86784 36075 ft 436 kts 285°
2026-04-28 14:01 49.71574 -145.20774 36076 ft 436 kts 285°
2026-04-28 14:02 49.81648 -145.55016 36077 ft 437 kts 285°
2026-04-28 14:02 49.91643 -145.89481 36026 ft 439 kts 284°
2026-04-28 14:03 50.01551 -146.24131 35989 ft 438 kts 284°
2026-04-28 14:03 50.11289 -146.58697 35970 ft 440 kts 284°
2026-04-28 14:04 50.21070 -146.93931 35953 ft 444 kts 284°
2026-04-28 14:04 50.30831 -147.29627 35952 ft 448 kts 283°
2026-04-28 14:05 50.40530 -147.65650 35943 ft 448 kts 283°
2026-04-28 14:05 50.50060 -148.01598 35943 ft 448 kts 282°
2026-04-28 14:06 50.59544 -148.37948 35944 ft 450 kts 282°
2026-04-28 14:06 50.68966 -148.74641 35943 ft 452 kts 282°
2026-04-28 14:07 50.78330 -149.11716 35943 ft 454 kts 282°
2026-04-28 14:07 50.87604 -149.49047 35934 ft 456 kts 282°
2026-04-28 14:08 50.96787 -149.86647 35934 ft 457 kts 282°
2026-04-28 14:08 51.06130 -150.24373 35925 ft 461 kts 283°
2026-04-28 14:09 51.15522 -150.62178 35944 ft 463 kts 283°
2026-04-28 14:09 51.24857 -151.00464 35943 ft 463 kts 283°
2026-04-28 14:10 51.34105 -151.39064 35943 ft 466 kts 283°
2026-04-28 14:10 51.43269 -151.78003 35934 ft 468 kts 283°
2026-04-28 14:11 51.52282 -152.17002 35934 ft 470 kts 283°
2026-04-28 14:11 51.61258 -152.56539 35934 ft 470 kts 282°
2026-04-28 14:12 51.70093 -152.96255 35934 ft 471 kts 282°
2026-04-28 14:12 51.78816 -153.36204 35934 ft 472 kts 282°
2026-04-28 14:13 51.87436 -153.76452 35934 ft 475 kts 283°
2026-04-28 14:13 51.95958 -154.17056 35934 ft 475 kts 282°
2026-04-28 14:14 52.04324 -154.57729 35888 ft 476 kts 282°
2026-04-28 14:14 52.12587 -154.98755 35884 ft 479 kts 282°
2026-04-28 14:15 52.20757 -155.40169 35881 ft 481 kts 282°
2026-04-28 14:15 52.28765 -155.81657 35882 ft 481 kts 282°
2026-04-28 14:16 52.36662 -156.23484 35881 ft 481 kts 282°
2026-04-28 14:16 52.44422 -156.65516 35866 ft 482 kts 282°
2026-04-28 14:17 52.52044 -157.07757 35870 ft 483 kts 282°
2026-04-28 14:17 52.59479 -157.49934 35870 ft 485 kts 281°
2026-04-28 14:18 52.66829 -157.92644 35839 ft 484 kts 281°
2026-04-28 14:18 52.74041 -158.35589 35821 ft 485 kts 281°
2026-04-28 14:19 52.81094 -158.78657 35810 ft 485 kts 281°
2026-04-28 14:19 52.87993 -159.21883 35787 ft 486 kts 281°
2026-04-28 14:20 52.94741 -159.65287 35796 ft 486 kts 281°
2026-04-28 14:20 53.01263 -160.08504 35796 ft 486 kts 280°
2026-04-28 14:21 53.07468 -160.52321 35789 ft 487 kts 279°
2026-04-28 14:21 53.11601 -160.82159 35802 ft 486 kts 288°
2026-04-28 14:22 53.13109 -160.93184 35740 ft 489 kts 279°
2026-04-28 14:22 53.15278 -161.09165 35730 ft 487 kts 279°
2026-04-28 14:23 53.18232 -161.31226 35720 ft 487 kts 279°
2026-04-28 14:23 53.21125 -161.53178 35720 ft 487 kts 279°
2026-04-28 14:24 53.23996 -161.75311 35718 ft 488 kts 279°
2026-04-28 14:24 53.26825 -161.97475 35718 ft 488 kts 279°
2026-04-28 14:25 53.29148 -162.15921 35718 ft 488 kts 279°
2026-04-28 14:25 53.31904 -162.38131 35710 ft 488 kts 279°
2026-04-28 14:26 53.34618 -162.60398 35652 ft 487 kts 279°
2026-04-28 14:26 53.37294 -162.82694 35629 ft 487 kts 278°
2026-04-28 14:27 53.39921 -163.04938 35592 ft 486 kts 278°
2026-04-28 14:27 53.42487 -163.27080 35561 ft 487 kts 278°
2026-04-28 14:28 53.45029 -163.49382 35561 ft 486 kts 278°
2026-04-28 14:28 53.47535 -163.71753 35552 ft 487 kts 278°
2026-04-28 14:29 53.49980 -163.93988 35552 ft 487 kts 278°
2026-04-28 14:29 53.52401 -164.16392 35552 ft 487 kts 278°
2026-04-28 14:30 53.54780 -164.38818 35543 ft 487 kts 278°
2026-04-28 14:30 53.57110 -164.61223 35542 ft 486 kts 278°
2026-04-28 14:31 53.59397 -164.83646 35533 ft 485 kts 277°
2026-04-28 14:31 53.61641 -165.06067 35533 ft 485 kts 277°
2026-04-28 14:32 53.63827 -165.28348 35524 ft 484 kts 277°
2026-04-28 14:32 53.65984 -165.50795 35524 ft 485 kts 277°
2026-04-28 14:33 53.68102 -165.73290 35525 ft 485 kts 277°
2026-04-28 14:33 53.70168 -165.95685 35524 ft 486 kts 277°
2026-04-28 14:34 53.73205 -166.29519 35508 ft 485 kts 277°
2026-04-28 14:35 53.75174 -166.52062 35515 ft 485 kts 277°
2026-04-28 14:35 53.77098 -166.74596 35503 ft 483 kts 277°
2026-04-28 14:36 53.78974 -166.97112 35517 ft 483 kts 277°
2026-04-28 14:36 53.80807 -167.19620 35504 ft 482 kts 277°
2026-04-28 14:37 53.82599 -167.42145 35501 ft 483 kts 277°
2026-04-28 14:37 53.84335 -167.64539 35500 ft 483 kts 276°
2026-04-28 14:38 53.86054 -167.87244 35492 ft 484 kts 276°
2026-04-28 14:38 53.87709 -168.09754 35495 ft 484 kts 276°
2026-04-28 14:39 53.89339 -168.32407 35486 ft 483 kts 276°
2026-04-28 14:39 53.90919 -168.55026 35479 ft 482 kts 276°
2026-04-28 14:40 53.92455 -168.77634 35473 ft 480 kts 276°
2026-04-28 14:40 53.93937 -169.00109 35475 ft 478 kts 276°
2026-04-28 14:41 53.95365 -169.22386 35467 ft 477 kts 276°
2026-04-28 14:41 53.96757 -169.44790 35459 ft 476 kts 276°
2026-04-28 14:42 53.98108 -169.67193 35459 ft 476 kts 275°
2026-04-28 14:42 53.99418 -169.89625 35409 ft 476 kts 275°
2026-04-28 14:42 54.00058 -170.00810 35813 ft 473 kts 275°
2026-04-28 14:43 54.00571 -170.11939 36258 ft 472 kts 274°
2026-04-28 14:43 54.00973 -170.22947 36515 ft 473 kts 273°
2026-04-28 14:43 54.01384 -170.34146 36792 ft 473 kts 274°
2026-04-28 14:43 54.01806 -170.45328 37083 ft 473 kts 274°
2026-04-28 14:44 54.02223 -170.56491 37347 ft 473 kts 274°
2026-04-28 14:44 54.03031 -170.78928 37436 ft 474 kts 274°
2026-04-28 14:45 54.03790 -171.01120 37449 ft 471 kts 274°
2026-04-28 14:45 54.04505 -171.23335 37449 ft 467 kts 274°
2026-04-28 14:46 54.05171 -171.45349 37455 ft 464 kts 274°
2026-04-28 14:46 54.05793 -171.67197 37457 ft 461 kts 274°
2026-04-28 14:47 54.06375 -171.88928 37481 ft 459 kts 274°
2026-04-28 14:47 54.06917 -172.10645 37524 ft 458 kts 273°
2026-04-28 14:48 54.07416 -172.32226 37533 ft 458 kts 273°
2026-04-28 14:48 54.07878 -172.53977 37542 ft 460 kts 273°
2026-04-28 14:49 54.08305 -172.75782 37544 ft 461 kts 273°
2026-04-28 14:49 54.08691 -172.97602 37561 ft 461 kts 273°
2026-04-28 14:50 54.09037 -173.19475 37571 ft 461 kts 273°
2026-04-28 14:50 54.09347 -173.41333 37571 ft 461 kts 273°
2026-04-28 14:51 54.09611 -173.63107 37577 ft 459 kts 273°
2026-04-28 14:51 54.09838 -173.84717 37582 ft 459 kts 273°
2026-04-28 14:52 54.10026 -174.06429 37587 ft 458 kts 272°
2026-04-28 14:52 54.10173 -174.28137 37598 ft 458 kts 272°
2026-04-28 14:53 54.10284 -174.49897 37596 ft 459 kts 272°
2026-04-28 14:53 54.10355 -174.71646 37618 ft 459 kts 272°
2026-04-28 14:54 54.10387 -174.93370 37616 ft 459 kts 272°
2026-04-28 14:54 54.10378 -175.15033 37617 ft 458 kts 272°
2026-04-28 14:55 54.10331 -175.36700 37620 ft 457 kts 272°
2026-04-28 14:55 54.10246 -175.58368 37619 ft 454 kts 272°
2026-04-28 14:56 54.10124 -175.79724 37634 ft 453 kts 272°
2026-04-28 14:56 54.09963 -176.01187 37645 ft 452 kts 272°
2026-04-28 14:57 54.09765 -176.22619 37645 ft 452 kts 271°
2026-04-28 14:57 54.09529 -176.44044 37655 ft 452 kts 271°
2026-04-28 14:58 54.09254 -176.65473 37654 ft 453 kts 271°
2026-04-28 14:58 54.08941 -176.86820 37665 ft 453 kts 271°
2026-04-28 14:59 54.08588 -177.08292 37664 ft 453 kts 271°
2026-04-28 14:59 54.08200 -177.29747 37665 ft 452 kts 271°
2026-04-28 15:00 54.07772 -177.51136 37680 ft 451 kts 271°
2026-04-28 15:00 54.07309 -177.72480 37683 ft 450 kts 270°
2026-04-28 15:01 54.06808 -177.93731 37683 ft 449 kts 270°
2026-04-28 15:01 54.06278 -178.14806 37683 ft 448 kts 270°
2026-04-28 15:02 54.05704 -178.36044 37683 ft 448 kts 270°
2026-04-28 15:02 54.05091 -178.57285 37683 ft 449 kts 270°
2026-04-28 15:03 54.04442 -178.78534 37683 ft 449 kts 270°
2026-04-28 15:03 54.03753 -178.99765 37683 ft 449 kts 270°
2026-04-28 15:04 54.03033 -179.20951 37683 ft 448 kts 269°
2026-04-28 15:04 54.02281 -179.41945 37683 ft 447 kts 269°
2026-04-28 15:05 54.01492 -179.62970 37683 ft 445 kts 269°
2026-04-28 15:05 54.00661 -179.83933 37673 ft 443 kts 269°
2026-04-28 15:06 53.99864 179.95153 37673 ft 441 kts 272°
2026-04-28 15:06 54.00168 179.74310 37743 ft 440 kts 274°
2026-04-28 15:07 54.00364 179.53434 37808 ft 442 kts 273°
2026-04-28 15:07 54.00459 179.32512 37841 ft 443 kts 273°
2026-04-28 15:08 54.00521 179.11686 37838 ft 443 kts 273°
2026-04-28 15:08 54.00545 178.90726 37840 ft 442 kts 272°
2026-04-28 15:09 54.00534 178.69835 37839 ft 441 kts 272°
2026-04-28 15:09 54.00492 178.48989 37842 ft 440 kts 272°
2026-04-28 15:10 54.00411 178.28274 37832 ft 438 kts 272°
2026-04-28 15:10 54.00295 178.07692 37832 ft 437 kts 272°
2026-04-28 15:11 54.00138 177.87043 37832 ft 437 kts 272°
2026-04-28 15:11 53.99954 177.66373 37832 ft 436 kts 272°
2026-04-28 15:12 53.99739 177.45803 37831 ft 434 kts 271°
2026-04-28 15:12 53.99484 177.25315 37831 ft 432 kts 271°
2026-04-28 15:13 53.99196 177.05079 37831 ft 430 kts 271°
2026-04-28 15:13 53.98874 176.84798 37832 ft 429 kts 271°
2026-04-28 15:14 53.98519 176.64602 37830 ft 426 kts 271°
2026-04-28 15:14 53.98198 176.47878 37833 ft 426 kts 270°
2026-04-28 15:15 53.97787 176.27737 37832 ft 427 kts 270°
2026-04-28 15:15 53.97337 176.07586 37831 ft 425 kts 270°
2026-04-28 15:16 53.96851 175.87467 37834 ft 426 kts 270°
2026-04-28 15:16 53.96340 175.67359 37831 ft 426 kts 270°
2026-04-28 15:17 53.95787 175.47263 37831 ft 426 kts 270°
2026-04-28 15:17 53.95205 175.26921 37804 ft 435 kts 268°
2026-04-28 15:18 53.94571 175.06468 37804 ft 434 kts 268°
2026-04-28 15:18 53.93912 174.86171 37804 ft 433 kts 268°
2026-04-28 15:19 53.93222 174.65748 37805 ft 433 kts 268°
2026-04-28 15:19 53.92491 174.45315 37804 ft 433 kts 268°
2026-04-28 15:20 53.91721 174.24879 37804 ft 435 kts 267°
2026-04-28 15:20 53.90928 174.04553 37805 ft 434 kts 267°
2026-04-28 15:21 53.90089 173.84081 37805 ft 434 kts 267°
2026-04-28 15:21 53.89213 173.63663 37803 ft 435 kts 267°
2026-04-28 15:22 53.88310 173.43218 37805 ft 435 kts 266°
2026-04-28 15:22 53.87370 173.22819 37804 ft 434 kts 266°
2026-04-28 15:23 53.86397 173.02544 37804 ft 434 kts 266°
2026-04-28 15:23 53.85391 172.82126 37804 ft 435 kts 266°
2026-04-28 15:24 53.84344 172.61754 37804 ft 434 kts 265°
2026-04-28 15:24 53.83267 172.41370 37803 ft 435 kts 265°
2026-04-28 15:25 53.82153 172.20927 37804 ft 436 kts 265°
2026-04-28 15:25 53.80995 172.00485 37803 ft 436 kts 265°
2026-04-28 15:26 53.79806 171.80047 37805 ft 436 kts 265°
2026-04-28 15:26 53.78582 171.59631 37804 ft 436 kts 265°
2026-04-28 15:27 53.77323 171.39219 37804 ft 436 kts 264°
2026-04-28 15:27 53.76046 171.19006 37805 ft 435 kts 264°
2026-04-28 15:28 53.74723 170.98632 37804 ft 436 kts 264°
2026-04-28 15:28 53.73358 170.78251 37804 ft 436 kts 263°
2026-04-28 15:29 53.71969 170.57900 37804 ft 436 kts 263°
2026-04-28 15:29 53.70534 170.37561 37804 ft 437 kts 263°
2026-04-28 15:30 53.69068 170.17219 37805 ft 437 kts 263°
2026-04-28 15:30 53.67569 169.96892 37804 ft 437 kts 263°
2026-04-28 15:31 53.66044 169.76684 37804 ft 436 kts 263°
2026-04-28 15:31 53.64469 169.56309 37804 ft 437 kts 262°
2026-04-28 15:32 53.62620 169.36089 38096 ft 436 kts 255°
2026-04-28 15:32 53.60329 169.26755 38330 ft 439 kts 245°
2026-04-28 15:32 53.57473 169.17646 38543 ft 441 kts 243°
2026-04-28 15:32 53.54524 169.08604 38724 ft 443 kts 243°
2026-04-28 15:33 53.51560 168.99488 38802 ft 446 kts 243°
2026-04-28 15:33 53.45623 168.81173 38803 ft 447 kts 243°
2026-04-28 15:34 53.39655 168.62878 38803 ft 446 kts 242°
2026-04-28 15:34 53.33663 168.44650 38804 ft 447 kts 242°
2026-04-28 15:35 53.27677 168.26565 38802 ft 447 kts 242°
2026-04-28 15:35 53.18563 167.99423 38805 ft 446 kts 242°
2026-04-28 15:36 53.12454 167.81359 38806 ft 447 kts 241°
2026-04-28 15:36 53.06320 167.63358 38807 ft 447 kts 241°
2026-04-28 15:37 53.00149 167.45402 38802 ft 446 kts 241°
2026-04-28 15:37 52.95023 167.30568 38805 ft 446 kts 241°
2026-04-28 15:38 52.87800 167.09817 38798 ft 447 kts 240°
2026-04-28 15:38 52.81550 166.91999 38794 ft 447 kts 240°
2026-04-28 15:39 52.75266 166.74212 38798 ft 447 kts 240°
2026-04-28 15:39 52.68969 166.56516 38800 ft 447 kts 240°
2026-04-28 15:40 52.62643 166.38869 38791 ft 447 kts 240°
2026-04-28 15:40 52.56283 166.21248 38796 ft 448 kts 240°
2026-04-28 15:41 52.49917 166.03731 38791 ft 448 kts 239°
2026-04-28 15:41 52.43497 165.86191 38796 ft 448 kts 239°
2026-04-28 15:42 52.37042 165.68683 38794 ft 448 kts 239°
2026-04-28 15:42 52.30579 165.51258 38795 ft 448 kts 239°
2026-04-28 15:43 52.24082 165.33869 38792 ft 448 kts 239°
2026-04-28 15:43 52.17605 165.16651 38793 ft 448 kts 239°
2026-04-28 15:44 52.11053 164.99361 38796 ft 448 kts 239°
2026-04-28 15:44 52.04476 164.82107 38795 ft 449 kts 238°
2026-04-28 15:45 51.97878 164.64919 38799 ft 448 kts 238°
2026-04-28 15:45 51.91303 164.47897 38791 ft 447 kts 238°
2026-04-28 15:46 51.84662 164.30845 38783 ft 448 kts 238°
2026-04-28 15:46 51.78006 164.13846 38780 ft 448 kts 238°
2026-04-28 15:47 51.71316 163.96886 38791 ft 448 kts 238°
2026-04-28 15:47 51.64594 163.79942 38779 ft 448 kts 238°
2026-04-28 15:48 51.57864 163.63102 38790 ft 447 kts 238°
2026-04-28 15:48 51.51144 163.46389 38791 ft 447 kts 237°
2026-04-28 15:49 51.44365 163.29637 38791 ft 448 kts 237°
2026-04-28 15:49 51.37561 163.12924 38778 ft 448 kts 237°
2026-04-28 15:50 51.30723 162.96242 38779 ft 448 kts 237°
2026-04-28 15:50 51.23867 162.79626 38778 ft 448 kts 237°
2026-04-28 15:51 51.16977 162.63031 38786 ft 448 kts 237°
2026-04-28 15:51 51.10114 162.46606 38787 ft 448 kts 236°
2026-04-28 15:52 51.03178 162.30116 38787 ft 448 kts 236°
2026-04-28 15:52 50.96224 162.13695 38788 ft 448 kts 236°
2026-04-28 15:53 50.89263 161.97327 38790 ft 448 kts 236°
2026-04-28 15:53 50.82260 161.80995 38791 ft 448 kts 236°
2026-04-28 15:54 50.75235 161.64709 38784 ft 448 kts 236°
2026-04-28 15:54 50.68218 161.48548 38791 ft 448 kts 236°
2026-04-28 15:55 50.61151 161.32346 38787 ft 448 kts 236°
2026-04-28 15:55 50.54061 161.16219 38784 ft 448 kts 235°
2026-04-28 15:56 50.46943 161.00112 38787 ft 449 kts 235°
2026-04-28 15:56 50.39789 160.84028 38788 ft 449 kts 235°
2026-04-28 15:57 50.32622 160.68009 38782 ft 449 kts 235°
2026-04-28 15:57 50.25436 160.52040 38790 ft 449 kts 235°
2026-04-28 15:58 50.18217 160.36112 39089 ft 448 kts 235°
2026-04-28 15:58 50.14625 160.28247 39322 ft 449 kts 235°
2026-04-28 15:58 50.10990 160.20326 39543 ft 450 kts 235°
2026-04-28 15:59 50.07343 160.12401 39721 ft 451 kts 235°
2026-04-28 15:59 50.04905 160.07115 39783 ft 453 kts 234°
2026-04-28 15:59 49.96346 159.88651 39786 ft 452 kts 234°
2026-04-28 16:00 49.88978 159.72837 39786 ft 453 kts 234°
2026-04-28 16:00 49.81559 159.57034 39786 ft 453 kts 234°
2026-04-28 16:01 49.75385 159.43940 39784 ft 452 kts 234°
2026-04-28 16:01 49.67913 159.28263 39786 ft 452 kts 233°
2026-04-28 16:02 49.60285 159.12807 39785 ft 453 kts 233°
2026-04-28 16:02 49.52642 158.97342 39785 ft 452 kts 233°
2026-04-28 16:03 49.45056 158.82048 39785 ft 453 kts 233°
2026-04-28 16:03 49.37386 158.66671 39796 ft 454 kts 233°
2026-04-28 16:04 49.29677 158.51328 39794 ft 454 kts 233°
2026-04-28 16:04 49.21941 158.36025 39798 ft 454 kts 233°
2026-04-28 16:05 49.14189 158.20752 39804 ft 453 kts 233°
2026-04-28 16:05 49.06429 158.05557 39804 ft 453 kts 232°
2026-04-28 16:06 48.98692 157.90502 39802 ft 453 kts 232°
2026-04-28 16:06 48.90909 157.75445 39804 ft 452 kts 232°
2026-04-28 16:07 48.83114 157.60440 39803 ft 452 kts 232°
2026-04-28 16:08 48.71435 157.38124 39813 ft 451 kts 232°
2026-04-28 16:08 48.63606 157.23269 39811 ft 451 kts 232°
2026-04-28 16:09 48.51841 157.01088 39811 ft 450 kts 232°
2026-04-28 16:10 48.40048 156.79045 39825 ft 449 kts 232°
2026-04-28 16:10 48.28290 156.57245 39811 ft 448 kts 232°
2026-04-28 16:11 48.12578 156.28387 39815 ft 445 kts 232°
2026-04-28 16:12 48.00793 156.06937 39818 ft 444 kts 231°
2026-04-28 16:13 47.88967 155.85591 39825 ft 444 kts 231°
2026-04-28 16:14 47.73185 155.57363 39818 ft 444 kts 231°
2026-04-28 16:15 47.57295 155.29240 39829 ft 445 kts 231°
2026-04-28 16:15 47.49318 155.15225 39859 ft 445 kts 231°
2026-04-28 16:16 47.37304 154.94264 39868 ft 445 kts 231°
2026-04-28 16:17 47.25247 154.73384 39869 ft 445 kts 231°
2026-04-28 16:17 47.17183 154.59511 39869 ft 446 kts 231°
2026-04-28 16:18 47.09114 154.45696 39870 ft 445 kts 231°
2026-04-28 16:18 47.01063 154.31985 39873 ft 446 kts 231°
2026-04-28 16:19 46.92954 154.18244 39878 ft 445 kts 231°
2026-04-28 16:19 46.84849 154.04581 39878 ft 444 kts 231°
2026-04-28 16:20 46.76743 153.90978 39878 ft 443 kts 231°
2026-04-28 16:20 46.68635 153.77446 39878 ft 442 kts 231°
2026-04-28 16:21 46.60526 153.63978 39888 ft 442 kts 231°
2026-04-28 16:21 46.52417 153.50576 39888 ft 441 kts 231°
2026-04-28 16:22 46.44347 153.37302 39887 ft 441 kts 231°
2026-04-28 16:22 46.36201 153.23967 39887 ft 441 kts 231°
2026-04-28 16:23 46.28044 153.10683 39888 ft 441 kts 231°
2026-04-28 16:23 46.19874 152.97451 39895 ft 441 kts 231°
2026-04-28 16:24 46.11640 152.84332 39896 ft 440 kts 230°
2026-04-28 16:24 46.03459 152.71356 39896 ft 439 kts 230°
2026-04-28 16:25 45.95222 152.58343 39896 ft 438 kts 230°
2026-04-28 16:25 45.87050 152.45498 39898 ft 435 kts 230°
2026-04-28 16:26 45.78873 152.32696 39897 ft 435 kts 230°
2026-04-28 16:26 45.70666 152.19913 39896 ft 436 kts 230°
2026-04-28 16:27 45.62480 152.07222 39897 ft 436 kts 230°
2026-04-28 16:28 45.50121 151.88169 39907 ft 435 kts 230°
2026-04-28 16:28 45.41864 151.75517 39907 ft 434 kts 230°
2026-04-28 16:29 45.29574 151.56793 39908 ft 432 kts 230°
2026-04-28 16:30 45.17260 151.38151 39908 ft 431 kts 230°
2026-04-28 16:30 45.09040 151.25782 39905 ft 431 kts 230°
2026-04-28 16:31 45.00806 151.13448 39905 ft 430 kts 230°
2026-04-28 16:31 44.92629 151.01251 39905 ft 430 kts 230°
2026-04-28 16:32 44.84381 150.89006 39908 ft 430 kts 230°
2026-04-28 16:32 44.72008 150.70725 39905 ft 429 kts 230°
2026-04-28 16:33 44.65150 150.60658 39907 ft 429 kts 230°
2026-04-28 16:33 44.55490 150.46531 39907 ft 429 kts 230°
2026-04-28 16:34 44.47215 150.34483 39905 ft 428 kts 230°
2026-04-28 16:34 44.38983 150.22553 39905 ft 429 kts 230°
2026-04-28 16:35 44.30696 150.10593 39905 ft 427 kts 230°
2026-04-28 16:35 44.22403 149.98678 39908 ft 427 kts 230°
2026-04-28 16:36 44.14100 149.86799 39905 ft 428 kts 230°
2026-04-28 16:36 44.05772 149.74935 39908 ft 428 kts 230°
2026-04-28 16:37 43.97502 149.63202 39912 ft 427 kts 230°
2026-04-28 16:38 43.84997 149.45562 39922 ft 426 kts 230°
2026-04-28 16:38 43.76692 149.33907 39923 ft 424 kts 230°
2026-04-28 16:39 43.68441 149.22371 39923 ft 423 kts 231°
2026-04-28 16:39 43.60156 149.10838 39922 ft 422 kts 231°
2026-04-28 16:40 43.51877 148.99358 39916 ft 421 kts 230°
2026-04-28 16:40 43.43616 148.87959 39917 ft 419 kts 230°
2026-04-28 16:41 43.35370 148.76628 39915 ft 418 kts 230°
2026-04-28 16:41 43.27150 148.65371 39917 ft 417 kts 230°
2026-04-28 16:42 43.18971 148.54214 39919 ft 417 kts 230°
2026-04-28 16:42 43.10745 148.43049 39919 ft 416 kts 231°
2026-04-28 16:43 43.02547 148.31952 39898 ft 414 kts 231°
2026-04-28 16:43 42.94364 148.20923 39897 ft 411 kts 231°
2026-04-28 16:44 42.86226 148.10002 39896 ft 409 kts 231°
2026-04-28 16:44 42.78121 147.99165 39898 ft 406 kts 231°
2026-04-28 16:45 42.70134 147.88528 39897 ft 403 kts 231°
2026-04-28 16:45 42.62128 147.77908 39897 ft 401 kts 231°
2026-04-28 16:46 42.54155 147.67367 39898 ft 400 kts 231°
2026-04-28 16:46 42.46179 147.56868 39897 ft 399 kts 231°
2026-04-28 16:47 42.38214 147.46416 39896 ft 399 kts 231°
2026-04-28 16:47 42.30250 147.35986 39899 ft 399 kts 231°
2026-04-28 16:48 42.22258 147.25553 39896 ft 400 kts 231°
2026-04-28 16:48 42.14285 147.15192 39899 ft 401 kts 231°
2026-04-28 16:49 42.07600 147.06530 39896 ft 401 kts 231°
2026-04-28 16:49 41.99517 146.96095 39896 ft 402 kts 230°
2026-04-28 16:50 41.91447 146.85728 39896 ft 398 kts 231°
2026-04-28 16:50 41.83485 146.75502 39896 ft 395 kts 231°
2026-04-28 16:51 41.75529 146.65307 39897 ft 396 kts 231°
2026-04-28 16:51 41.67535 146.55111 39897 ft 397 kts 231°
2026-04-28 16:52 41.59583 146.45008 39908 ft 397 kts 231°
2026-04-28 16:52 41.51561 146.34854 39906 ft 398 kts 231°
2026-04-28 16:53 41.43508 146.24694 39906 ft 398 kts 231°
2026-04-28 16:53 41.35462 146.14585 39907 ft 397 kts 231°
2026-04-28 16:54 41.27407 146.04495 39907 ft 396 kts 231°
2026-04-28 16:54 41.19443 145.94555 39923 ft 395 kts 231°
2026-04-28 16:55 41.11395 145.84544 39961 ft 396 kts 231°
2026-04-28 16:55 41.03355 145.74581 39961 ft 395 kts 231°
2026-04-28 16:56 40.95321 145.64660 39961 ft 394 kts 231°
2026-04-28 16:56 40.87317 145.54808 39962 ft 393 kts 231°
2026-04-28 16:57 40.79302 145.44981 39962 ft 392 kts 231°
2026-04-28 16:57 40.71352 145.35266 39947 ft 391 kts 231°
2026-04-28 16:58 40.63359 145.25527 39942 ft 390 kts 231°
2026-04-28 16:58 40.55375 145.15836 39942 ft 390 kts 231°
2026-04-28 16:59 40.47366 145.06145 39944 ft 391 kts 232°
2026-04-28 16:59 40.39334 144.96475 40375 ft 390 kts 231°
2026-04-28 16:59 40.35360 144.91690 40512 ft 393 kts 231°
2026-04-28 17:00 40.31317 144.86824 40675 ft 395 kts 231°
2026-04-28 17:00 40.27252 144.81948 40859 ft 396 kts 231°
2026-04-28 17:00 40.23176 144.77071 40925 ft 397 kts 231°
2026-04-28 17:01 40.14993 144.67307 40925 ft 397 kts 231°
2026-04-28 17:01 40.06842 144.57611 40925 ft 396 kts 231°
2026-04-28 17:02 39.98664 144.47913 40916 ft 397 kts 231°
2026-04-28 17:02 39.90487 144.38254 40916 ft 396 kts 231°
2026-04-28 17:03 39.78252 144.23855 40934 ft 396 kts 231°
2026-04-28 17:03 39.70052 144.14247 40941 ft 396 kts 231°
2026-04-28 17:04 39.57787 143.99935 40944 ft 396 kts 231°
2026-04-28 17:05 39.45467 143.85630 40943 ft 397 kts 231°
2026-04-28 17:06 39.33097 143.71340 40925 ft 397 kts 231°
2026-04-28 17:06 39.20738 143.57131 40924 ft 396 kts 231°
2026-04-28 17:07 39.12527 143.47730 40924 ft 396 kts 231°
2026-04-28 17:07 39.04286 143.38324 40925 ft 395 kts 231°
2026-04-28 17:08 38.96043 143.28947 40925 ft 395 kts 231°
2026-04-28 17:08 38.87875 143.19500 40925 ft 392 kts 234°
2026-04-28 17:09 38.80406 143.09494 40925 ft 390 kts 235°
2026-04-28 17:09 38.72825 142.99559 40925 ft 390 kts 234°
2026-04-28 17:10 38.65200 142.89671 40925 ft 390 kts 234°
2026-04-28 17:10 38.57567 142.79792 40925 ft 391 kts 234°
2026-04-28 17:11 38.49890 142.69893 40925 ft 391 kts 234°
2026-04-28 17:11 38.42196 142.60002 40925 ft 392 kts 234°
2026-04-28 17:12 38.34503 142.50144 40925 ft 392 kts 234°
2026-04-28 17:12 38.26901 142.40339 40924 ft 391 kts 234°
2026-04-28 17:13 38.19306 142.30404 40925 ft 391 kts 234°
2026-04-28 17:13 38.11692 142.20524 40934 ft 391 kts 234°
2026-04-28 17:14 38.04063 142.10658 40934 ft 391 kts 234°
2026-04-28 17:14 37.96425 142.00816 40934 ft 391 kts 234°
2026-04-28 17:15 37.88783 141.90990 40934 ft 391 kts 234°
2026-04-28 17:15 37.81122 141.81174 40934 ft 391 kts 234°
2026-04-28 17:16 37.73442 141.71366 40934 ft 392 kts 234°
2026-04-28 17:16 37.65744 141.61563 40934 ft 394 kts 234°
2026-04-28 17:17 37.58056 141.51806 40934 ft 395 kts 234°
2026-04-28 17:17 37.50290 141.41983 40924 ft 394 kts 233°
2026-04-28 17:18 37.42514 141.32173 40924 ft 396 kts 233°
2026-04-28 17:18 37.34749 141.22410 40925 ft 397 kts 233°
2026-04-28 17:19 37.26901 141.12574 40925 ft 398 kts 233°
2026-04-28 17:19 37.19045 141.02757 40910 ft 399 kts 233°
2026-04-28 17:20 37.12802 140.94318 40906 ft 394 kts 238°
2026-04-28 17:20 37.04764 140.81817 40913 ft 394 kts 238°
2026-04-28 17:21 36.97879 140.71114 40903 ft 395 kts 238°
2026-04-28 17:22 36.87522 140.55107 40906 ft 397 kts 238°
2026-04-28 17:22 36.80546 140.44368 40901 ft 398 kts 238°
2026-04-28 17:23 36.70638 140.27795 40894 ft 395 kts 242°
2026-04-28 17:23 36.64657 140.16389 40894 ft 396 kts 242°
2026-04-28 17:24 36.58593 140.04894 40889 ft 398 kts 242°
2026-04-28 17:24 36.52489 139.93378 40894 ft 399 kts 242°
2026-04-28 17:25 36.42950 139.76298 40896 ft 402 kts 239°
2026-04-28 17:26 36.36359 139.65202 40894 ft 402 kts 239°
2026-04-28 17:26 36.29799 139.53945 40899 ft 402 kts 240°
2026-04-28 17:27 36.23220 139.42716 40899 ft 402 kts 240°
2026-04-28 17:27 36.16722 139.31419 40908 ft 399 kts 244°
2026-04-28 17:28 36.11942 139.19222 40907 ft 395 kts 249°
2026-04-28 17:28 36.05043 139.00633 40909 ft 396 kts 249°
2026-04-28 17:29 36.00444 138.88357 40899 ft 396 kts 249°
2026-04-28 17:30 35.93416 138.69719 40905 ft 402 kts 249°
2026-04-28 17:30 35.86288 138.50942 40906 ft 403 kts 249°
2026-04-28 17:31 35.79118 138.32215 40907 ft 402 kts 249°
2026-04-28 17:32 35.71928 138.13537 40916 ft 402 kts 249°
2026-04-28 17:32 35.67144 138.01169 40915 ft 402 kts 248°
2026-04-28 17:33 35.62574 137.88631 40912 ft 401 kts 250°
2026-04-28 17:33 35.59577 137.80219 40931 ft 402 kts 250°
2026-04-28 17:34 35.53314 137.63626 40930 ft 403 kts 249°
2026-04-28 17:34 35.48554 137.51150 40925 ft 403 kts 249°
2026-04-28 17:35 35.43839 137.38757 40923 ft 403 kts 249°
2026-04-28 17:35 35.39103 137.26248 40930 ft 404 kts 249°
2026-04-28 17:36 35.34534 137.13680 40934 ft 403 kts 250°
2026-04-28 17:36 35.30046 137.01181 40932 ft 403 kts 250°
2026-04-28 17:37 35.25881 136.88504 40934 ft 399 kts 256°
2026-04-28 17:37 35.23394 136.77617 40943 ft 399 kts 257°
2026-04-28 17:38 35.20469 136.64534 40943 ft 398 kts 257°
2026-04-28 17:38 35.17508 136.51468 40943 ft 398 kts 257°
2026-04-28 17:39 35.14537 136.38398 40939 ft 398 kts 256°
2026-04-28 17:40 35.10053 136.18836 40943 ft 399 kts 257°
2026-04-28 17:40 35.07079 136.05793 40935 ft 399 kts 256°
2026-04-28 17:41 35.04092 135.92840 40933 ft 398 kts 256°
2026-04-28 17:41 35.01083 135.79807 40959 ft 398 kts 258°
2026-04-28 17:42 34.98714 135.66626 40961 ft 398 kts 259°
2026-04-28 17:42 34.96299 135.53443 40960 ft 398 kts 259°
2026-04-28 17:43 34.93824 135.40270 40953 ft 398 kts 259°
2026-04-28 17:43 34.91315 135.27202 40971 ft 399 kts 258°
2026-04-28 17:44 34.88717 135.14055 40970 ft 399 kts 258°
2026-04-28 17:44 34.86118 135.00905 40972 ft 399 kts 258°
2026-04-28 17:45 34.83616 134.87729 40972 ft 399 kts 259°
2026-04-28 17:45 34.81161 134.74547 40970 ft 399 kts 259°
2026-04-28 17:46 34.78668 134.61375 40971 ft 400 kts 259°
2026-04-28 17:46 34.76126 134.48266 40978 ft 400 kts 258°
2026-04-28 17:47 34.73589 134.35067 40978 ft 401 kts 259°
2026-04-28 17:47 34.71052 134.21828 40982 ft 402 kts 258°
2026-04-28 17:48 34.68499 134.08562 40986 ft 403 kts 259°
2026-04-28 17:48 34.65297 133.95475 40989 ft 406 kts 253°
2026-04-28 17:49 34.61346 133.82694 40991 ft 407 kts 252°
2026-04-28 17:49 34.57358 133.69851 40989 ft 406 kts 252°
2026-04-28 17:50 34.53338 133.57020 40989 ft 407 kts 252°
2026-04-28 17:50 34.49106 133.44269 40989 ft 407 kts 251°
2026-04-28 17:51 34.44957 133.31521 40990 ft 405 kts 253°
2026-04-28 17:51 34.41005 133.18738 40990 ft 405 kts 253°
2026-04-28 17:52 34.36989 133.06069 40994 ft 405 kts 252°
2026-04-28 17:52 34.30885 132.87015 40989 ft 404 kts 253°
2026-04-28 17:53 34.26886 132.74324 40986 ft 404 kts 253°
2026-04-28 17:53 34.22859 132.61612 40990 ft 404 kts 253°
2026-04-28 17:54 34.18828 132.48916 40988 ft 405 kts 253°
2026-04-28 17:54 34.14804 132.36215 40989 ft 405 kts 253°
2026-04-28 17:55 34.10755 132.23512 40989 ft 405 kts 253°
2026-04-28 17:55 34.07076 132.10785 40991 ft 403 kts 258°
2026-04-28 17:56 34.04163 131.97748 40988 ft 403 kts 258°
2026-04-28 17:56 34.01257 131.84693 40989 ft 403 kts 258°
2026-04-28 17:57 33.98328 131.71653 40991 ft 403 kts 258°
2026-04-28 17:57 33.95379 131.58608 40989 ft 404 kts 258°
2026-04-28 17:58 33.92414 131.45552 40991 ft 404 kts 258°
2026-04-28 17:58 33.89446 131.32556 40989 ft 405 kts 258°
2026-04-28 17:59 33.86442 131.19484 40990 ft 405 kts 258°
2026-04-28 17:59 33.83425 131.06395 40990 ft 406 kts 258°
2026-04-28 18:00 33.80394 130.93313 40991 ft 405 kts 258°
2026-04-28 18:00 33.77353 130.80278 40992 ft 405 kts 258°
2026-04-28 18:01 33.74305 130.67261 41007 ft 404 kts 258°
2026-04-28 18:01 33.71262 130.54348 41022 ft 404 kts 259°
2026-04-28 18:02 33.68068 130.41391 41011 ft 406 kts 253°
2026-04-28 18:02 33.65330 130.35379 41015 ft 417 kts 242°
2026-04-28 18:02 33.61885 130.29754 41030 ft 419 kts 240°
2026-04-28 18:03 33.54764 130.18662 41030 ft 419 kts 240°
2026-04-28 18:03 33.47684 130.07548 41028 ft 420 kts 240°
2026-04-28 18:04 33.40588 129.96425 41034 ft 420 kts 240°
2026-04-28 18:04 33.33497 129.85345 41033 ft 420 kts 240°
2026-04-28 18:05 33.27561 129.76095 41040 ft 422 kts 240°
2026-04-28 18:05 33.19836 129.62808 41035 ft 411 kts 252°
2026-04-28 18:06 33.15435 129.50217 41046 ft 411 kts 253°
2026-04-28 18:06 33.11127 129.37540 41043 ft 412 kts 253°
2026-04-28 18:07 33.06773 129.24881 41046 ft 412 kts 253°
2026-04-28 18:07 33.02410 129.12255 41043 ft 411 kts 253°
2026-04-28 18:08 32.98038 128.99651 41046 ft 411 kts 253°
2026-04-28 18:08 32.93652 128.87027 41047 ft 413 kts 253°
2026-04-28 18:09 32.89262 128.74472 41047 ft 413 kts 252°
2026-04-28 18:09 32.84827 128.61850 41044 ft 414 kts 252°
2026-04-28 18:10 32.80387 128.49225 41053 ft 414 kts 252°
2026-04-28 18:10 32.75905 128.36545 41055 ft 416 kts 252°
2026-04-28 18:11 32.71429 128.23946 41055 ft 417 kts 252°
2026-04-28 18:11 32.66881 128.11172 41055 ft 418 kts 252°
2026-04-28 18:12 32.62367 127.98542 41063 ft 419 kts 252°
2026-04-28 18:12 32.57791 127.85797 41071 ft 419 kts 252°
2026-04-28 18:13 32.53207 127.73072 41080 ft 419 kts 252°
2026-04-28 18:13 32.48646 127.60462 41082 ft 419 kts 251°
2026-04-28 18:14 32.44040 127.47776 41093 ft 419 kts 251°
2026-04-28 18:14 32.39429 127.35123 41109 ft 419 kts 251°
2026-04-28 18:15 32.34800 127.22469 41101 ft 418 kts 251°
2026-04-28 18:15 32.30172 127.09867 41112 ft 417 kts 251°
2026-04-28 18:16 32.26471 126.97100 41105 ft 412 kts 259°
2026-04-28 18:16 32.23604 126.84012 41117 ft 411 kts 259°
2026-04-28 18:17 32.20741 126.71044 41125 ft 403 kts 258°
2026-04-28 18:17 32.17920 126.58243 41106 ft 402 kts 258°
2026-04-28 18:18 32.15171 126.45442 41136 ft 402 kts 258°
2026-04-28 18:18 32.12862 126.34815 41147 ft 402 kts 258°
2026-04-28 18:19 32.09593 126.19869 41147 ft 402 kts 258°
2026-04-28 18:19 32.06801 126.07171 41146 ft 403 kts 258°
2026-04-28 18:20 32.04039 125.94363 41150 ft 403 kts 258°
2026-04-28 18:20 32.01284 125.81548 41156 ft 403 kts 258°
2026-04-28 18:21 31.98471 125.68747 41155 ft 403 kts 258°
2026-04-28 18:21 31.95623 125.55969 41156 ft 403 kts 258°
2026-04-28 18:22 31.92766 125.43190 41156 ft 404 kts 258°
2026-04-28 18:22 31.89911 125.30489 41149 ft 404 kts 257°
2026-04-28 18:23 31.87019 125.17689 41156 ft 404 kts 257°
2026-04-28 18:23 31.84116 125.04901 41156 ft 404 kts 257°
2026-04-28 18:24 31.82179 124.96358 41156 ft 404 kts 258°
2026-04-28 18:24 31.78524 124.79333 41156 ft 403 kts 258°
2026-04-28 18:25 31.76214 124.68718 41156 ft 403 kts 258°
2026-04-28 18:26 31.71572 124.47556 41155 ft 401 kts 258°
2026-04-28 18:26 31.69227 124.36931 41155 ft 401 kts 258°
2026-04-28 18:27 31.66442 124.24369 41156 ft 400 kts 258°
2026-04-28 18:27 31.63628 124.11737 41156 ft 400 kts 258°
2026-04-28 18:28 31.60803 123.99126 41156 ft 399 kts 257°
2026-04-28 18:28 31.58042 123.86502 41163 ft 399 kts 258°
2026-04-28 18:29 31.55283 123.73888 41165 ft 400 kts 258°
2026-04-28 18:29 31.52496 123.61257 41165 ft 400 kts 258°
2026-04-28 18:30 31.49716 123.48713 41164 ft 400 kts 258°
2026-04-28 18:30 31.47312 123.35983 41165 ft 400 kts 259°
2026-04-28 18:31 31.44921 123.23248 41165 ft 400 kts 259°
2026-04-28 18:31 31.42476 123.10514 41165 ft 401 kts 259°
2026-04-28 18:32 31.40019 122.97768 41164 ft 400 kts 259°
2026-04-28 18:32 31.37569 122.85130 41165 ft 401 kts 258°
2026-04-28 18:33 31.35100 122.72433 41156 ft 400 kts 259°
2026-04-28 18:33 31.32687 122.59706 41156 ft 399 kts 259°
2026-04-28 18:34 31.30259 122.47041 41156 ft 399 kts 259°
2026-04-28 18:34 31.27868 122.34456 41156 ft 398 kts 259°
2026-04-28 18:35 31.25483 122.21784 41156 ft 398 kts 259°
2026-04-28 18:35 31.23078 122.09129 41156 ft 399 kts 259°
2026-04-28 18:36 31.20657 121.96463 41155 ft 399 kts 258°
2026-04-28 18:36 31.18229 121.83836 41156 ft 398 kts 258°
2026-04-28 18:37 31.16372 121.71114 41156 ft 398 kts 263°
2026-04-28 18:37 31.14995 121.58345 41164 ft 399 kts 263°
2026-04-28 18:38 31.13590 121.45500 41175 ft 399 kts 263°
2026-04-28 18:38 31.11897 121.32727 41185 ft 399 kts 256°
2026-04-28 18:39 31.08736 121.20278 41183 ft 400 kts 254°
2026-04-28 18:39 31.05558 121.07905 41183 ft 400 kts 255°
2026-04-28 18:40 31.02548 120.95406 41183 ft 400 kts 255°
2026-04-28 18:40 30.99489 120.82929 41183 ft 399 kts 255°
2026-04-28 18:41 30.96420 120.70468 41183 ft 399 kts 255°
2026-04-28 18:41 30.93372 120.58029 41183 ft 399 kts 255°
2026-04-28 18:42 30.89743 120.45901 41183 ft 402 kts 244°
2026-04-28 18:42 30.86356 120.40665 41183 ft 411 kts 230°
2026-04-28 18:42 30.81851 120.36432 41183 ft 419 kts 223°
2026-04-28 18:43 30.72244 120.28632 41183 ft 421 kts 222°
2026-04-28 18:43 30.62657 120.20802 41183 ft 421 kts 222°
2026-04-28 18:44 30.54408 120.14044 41180 ft 421 kts 221°
2026-04-28 18:44 30.49639 120.10159 41870 ft 409 kts 222°
2026-04-28 18:44 30.47348 120.08295 42110 ft 408 kts 223°
2026-04-28 18:45 30.45010 120.06383 41988 ft 416 kts 223°
2026-04-28 18:45 30.42541 120.04548 41738 ft 427 kts 219°
2026-04-28 18:45 30.39983 120.02779 41485 ft 429 kts 218°
2026-04-28 18:45 30.37407 120.01043 41252 ft 429 kts 218°
2026-04-28 18:46 30.32233 119.97616 41183 ft 427 kts 217°
2026-04-28 18:46 30.27103 119.94222 41184 ft 426 kts 217°
2026-04-28 18:47 30.21952 119.90803 41183 ft 427 kts 217°
2026-04-28 18:47 30.16807 119.87383 41183 ft 427 kts 218°
2026-04-28 18:48 30.11691 119.83986 41183 ft 427 kts 217°
2026-04-28 18:48 30.06510 119.80556 41181 ft 427 kts 217°
2026-04-28 18:49 30.02254 119.77738 41186 ft 427 kts 218°
2026-04-28 18:49 29.96261 119.73707 41183 ft 426 kts 218°
2026-04-28 18:50 29.91135 119.70247 41184 ft 427 kts 218°
2026-04-28 18:50 29.85998 119.66788 41175 ft 428 kts 218°
2026-04-28 18:51 29.81011 119.63184 41183 ft 424 kts 221°
2026-04-28 18:51 29.76181 119.59293 41184 ft 423 kts 221°
2026-04-28 18:52 29.71341 119.55404 41182 ft 424 kts 221°
2026-04-28 18:52 29.66470 119.51572 41178 ft 425 kts 221°
2026-04-28 18:53 29.61928 119.47316 41177 ft 417 kts 231°
2026-04-28 18:53 29.57995 119.42489 41173 ft 416 kts 232°
2026-04-28 18:54 29.54123 119.37536 41175 ft 417 kts 233°
2026-04-28 18:54 29.50246 119.32573 41177 ft 417 kts 232°
2026-04-28 18:55 29.47020 119.28451 41174 ft 417 kts 232°
2026-04-28 18:55 29.42472 119.22662 41166 ft 418 kts 232°
2026-04-28 18:56 29.38564 119.17702 41163 ft 419 kts 232°
2026-04-28 18:56 29.34670 119.12773 41165 ft 419 kts 232°
2026-04-28 18:57 29.30732 119.07803 41163 ft 420 kts 232°
2026-04-28 18:57 29.26805 119.02845 41157 ft 420 kts 232°
2026-04-28 18:58 29.22877 118.97904 41148 ft 419 kts 232°
2026-04-28 18:58 29.18961 118.92990 41164 ft 420 kts 231°
2026-04-28 18:59 29.15018 118.88039 41153 ft 420 kts 232°
2026-04-28 18:59 29.11080 118.83060 41020 ft 422 kts 232°
2026-04-28 19:00 29.07122 118.78097 41140 ft 422 kts 231°
2026-04-28 19:00 29.03173 118.73186 41134 ft 422 kts 231°
2026-04-28 19:01 28.99209 118.68238 41129 ft 422 kts 231°
2026-04-28 19:01 28.95241 118.63282 41128 ft 423 kts 231°
2026-04-28 19:02 28.91266 118.58323 41111 ft 423 kts 231°
2026-04-28 19:02 28.87305 118.53393 41113 ft 423 kts 231°
2026-04-28 19:03 28.83326 118.48432 41105 ft 424 kts 231°
2026-04-28 19:03 28.79330 118.43450 41070 ft 425 kts 231°
2026-04-28 19:04 28.75323 118.38495 41096 ft 425 kts 231°
2026-04-28 19:04 28.71340 118.33577 41104 ft 425 kts 231°
2026-04-28 19:05 28.67302 118.28586 41089 ft 426 kts 231°
2026-04-28 19:05 28.63311 118.23653 41097 ft 427 kts 231°
2026-04-28 19:06 28.59930 118.19478 41096 ft 428 kts 231°
2026-04-28 19:06 28.55239 118.13695 41085 ft 428 kts 231°
2026-04-28 19:07 28.51203 118.08726 41081 ft 428 kts 231°
2026-04-28 19:07 28.47151 118.03743 41095 ft 429 kts 231°
2026-04-28 19:08 28.43098 117.98763 41093 ft 429 kts 231°
2026-04-28 19:08 28.39017 117.93808 41106 ft 429 kts 230°
2026-04-28 19:09 28.34896 117.88958 41086 ft 430 kts 230°
2026-04-28 19:09 28.30735 117.84081 41086 ft 430 kts 230°
2026-04-28 19:10 28.26576 117.79190 41072 ft 430 kts 230°
2026-04-28 19:10 28.22424 117.74302 41066 ft 430 kts 230°
2026-04-28 19:11 28.18274 117.69420 41063 ft 430 kts 230°
2026-04-28 19:11 28.14125 117.64544 41064 ft 430 kts 230°
2026-04-28 19:12 28.09995 117.59696 41054 ft 430 kts 230°
2026-04-28 19:12 28.05841 117.54828 41053 ft 429 kts 229°
2026-04-28 19:13 28.01677 117.49960 41054 ft 430 kts 229°
2026-04-28 19:13 27.97505 117.45079 41060 ft 431 kts 229°
2026-04-28 19:14 27.94023 117.41022 41055 ft 433 kts 229°
2026-04-28 19:14 27.89156 117.35329 41057 ft 434 kts 229°
2026-04-28 19:15 27.85640 117.31223 41050 ft 433 kts 229°
2026-04-28 19:15 27.82151 117.27159 41050 ft 433 kts 228°
2026-04-28 19:16 27.77251 117.21490 41043 ft 434 kts 229°
2026-04-28 19:16 27.73053 117.16597 41045 ft 434 kts 229°
2026-04-28 19:17 27.68841 117.11697 41043 ft 434 kts 229°
2026-04-28 19:17 27.64625 117.06809 41033 ft 434 kts 229°
2026-04-28 19:18 27.60401 117.01923 41040 ft 435 kts 229°
2026-04-28 19:18 27.56197 116.97061 41036 ft 435 kts 229°
2026-04-28 19:19 27.51969 116.92178 41035 ft 436 kts 229°
2026-04-28 19:19 27.47756 116.87279 41036 ft 435 kts 229°
2026-04-28 19:20 27.43570 116.82364 41033 ft 435 kts 229°
2026-04-28 19:20 27.39377 116.77448 41012 ft 435 kts 229°
2026-04-28 19:21 27.35177 116.72540 41011 ft 435 kts 229°
2026-04-28 19:21 27.30969 116.67636 41010 ft 435 kts 229°
2026-04-28 19:22 27.27472 116.63563 41007 ft 436 kts 229°
2026-04-28 19:22 27.22577 116.57869 40997 ft 435 kts 229°
2026-04-28 19:23 27.18379 116.52958 40992 ft 435 kts 229°
2026-04-28 19:23 27.14267 116.47955 40979 ft 436 kts 230°
2026-04-28 19:24 27.10160 116.42931 40980 ft 437 kts 230°
2026-04-28 19:24 27.06034 116.37922 40979 ft 437 kts 230°
2026-04-28 19:25 27.01925 116.32960 40970 ft 437 kts 230°
2026-04-28 19:25 26.97786 116.27971 40973 ft 437 kts 230°
2026-04-28 19:26 26.93636 116.22974 40974 ft 438 kts 230°
2026-04-28 19:26 26.89482 116.17967 40968 ft 438 kts 230°
2026-04-28 19:27 26.85360 116.12935 40972 ft 438 kts 230°
2026-04-28 19:27 26.81237 116.07907 40970 ft 439 kts 230°
2026-04-28 19:28 26.77122 116.02899 40973 ft 440 kts 230°
2026-04-28 19:28 26.72974 115.97862 40971 ft 440 kts 230°
2026-04-28 19:29 26.69494 115.93644 40971 ft 439 kts 230°
2026-04-28 19:29 26.64673 115.87808 40973 ft 439 kts 230°
2026-04-28 19:30 26.60522 115.82787 40960 ft 440 kts 230°
2026-04-28 19:30 26.56356 115.77754 40960 ft 441 kts 230°
2026-04-28 19:31 26.52189 115.72727 40968 ft 441 kts 230°
2026-04-28 19:31 26.48022 115.67704 40960 ft 441 kts 230°
2026-04-28 19:32 26.43853 115.62684 40960 ft 441 kts 230°
2026-04-28 19:32 26.39680 115.57667 40960 ft 441 kts 230°
2026-04-28 19:33 26.35528 115.52682 40961 ft 441 kts 230°
2026-04-28 19:33 26.31351 115.47670 40961 ft 441 kts 230°